[[{"header":{"parameterUnit":"m.s-1","parameterCategory":2,"la1":30.2992,"la2":30.254,"lo1":-89.0895,"lo2":-89.0443,"dy":0.0025,"dx":0.0025,"nx":19,"ny":19,"refTime":"2026-04-19T21:00:00:Z","depth":"0","parameterNumber":2,"parameterNumberName":"U-component_of_CURRENTS"},"data":[0,0,0,0.1133,0.1133,0.1108,0.1107,0.111,0.111,0,0,0,0,0,0,0,0,0,0,0,0.1142,0.1142,0.1133,0.1133,0.1108,0.1107,0.111,0.111,0,0,0,0,0,0,0,0,0,0,0,0.1142,0.1142,0.1142,0.1133,0.1108,0.1107,0.111,0.1119,0,0,0,0,0,0,0,0,0,0,0.1139,0.1142,0.1142,0.1142,0.1133,0.1108,0.1107,0.1119,0.1118,0.1133,0,0.1132,0,0.1125,0.1112,0.1112,0,0,0,0.1127,0.1142,0.1139,0.1142,0.1133,0.1108,0.1117,0.1118,0.1118,0.1133,0.1132,0.1132,0.1125,0.1112,0.1112,0.1146,0.1147,0,0,0.1129,0.1135,0.1139,0.1138,0.113,0.1118,0.1117,0.1118,0.1118,0.1132,0.1131,0.1125,0.1112,0.1112,0.1146,0.1146,0,0,0,0.1137,0.1136,0.1131,0.1139,0.1133,0.1118,0.1116,0.1118,0.1117,0.1131,0.1125,0.1112,0.1112,0.1146,0.1146,0.1157,0,0,0,0.1137,0.114,0.1131,0.1134,0.1133,0.112,0.1116,0.1117,0.1117,0.1125,0.1112,0.1113,0.1146,0.1146,0.1156,0.1163,0,0,0,0.1142,0.1141,0.114,0.1135,0.1126,0.112,0.1118,0.1116,0.1113,0.1112,0.1113,0.1146,0.1146,0.1156,0.1162,0.1172,0,0,0,0.1146,0.1146,0.114,0.1139,0.1127,0.1125,0.1118,0.1119,0.1119,0.1112,0.1146,0.1146,0.1155,0.1161,0.1171,0.1134,0.1135,0,0,0.1148,0.1146,0.1146,0.114,0.1138,0.1128,0.1134,0.1132,0.1132,0.1146,0.1147,0.1157,0.1161,0.1171,0.1163,0.1163,0,0,0,0.1148,0.1147,0.1147,0.1143,0.1141,0.1143,0.1139,0.1145,0.1155,0.1135,0.1164,0.1167,0.1173,0.1149,0.1149,0.0961,0.1149,0.1149,0.1148,0.1154,0.1151,0.1148,0.1146,0.1149,0.1156,0.1164,0.1172,0.117,0.118,0.1181,0.1204,0.1179,0.1178,0.0985,0.1186,0.1186,0.1186,0.1186,0.115,0.1141,0.1145,0.1139,0.1148,0.1156,0.1184,0.1191,0.1212,0.1203,0.1208,0.1168,0.1179,0.0972,0.1187,0.1187,0.1187,0.1187,0.1187,0.1143,0.1135,0.1133,0.1127,0.1137,0.1155,0.1181,0.1208,0.1221,0.1231,0.1201,0.1201,0.1014,0.1231,0.1231,0.1231,0.1231,0.1231,0.1231,0.1126,0.1124,0.1118,0.1116,0.1118,0.1138,0.1182,0.1202,0.1216,0.1214,0.1214,0.0994,0.1217,0.121,0.1232,0.1232,0.1232,0.1232,0.1232,0.1106,0.1109,0.1096,0.1096,0.1097,0.1086,0.1146,0.1168,0.1198,0.1195,0.0959,0.1204,0.1197,0.1197,0.1189,0.1205,0.1205,0.1205,0.1205,0.1095,0.1095,0.1073,0.1063,0.1061,0.1061,0.1028,0.1025,0.0948,0.0849,0.0841,0.0787,0.0796,0.0762,0.0771,0.0754,0.0659,0.0658,0.0657,0.1087,0.1079,0.1055,0.1035,0.1033,0.1008,0.092,0.0784,0.0649,0.0615,0.0582,0.0605,0.0508,0.0538,0.0472,0.05,0.0468,0,0]},{"header":{"parameterUnit":"m.s-1","parameterCategory":2,"la1":30.2992,"la2":30.254,"lo1":-89.0895,"lo2":-89.0443,"dy":0.0025,"dx":0.0025,"nx":19,"ny":19,"refTime":"2026-04-19T21:00:00:Z","depth":"0","parameterNumber":3,"parameterNumberName":"V-component_of_CURRENTS"},"data":[0,0,0,-0.022,-0.022,-0.021,-0.021,-0.0183,-0.0183,0,0,0,0,0,0,0,0,0,0,0,-0.022,-0.022,-0.022,-0.022,-0.021,-0.021,-0.0183,-0.0183,0,0,0,0,0,0,0,0,0,0,0,-0.022,-0.022,-0.022,-0.022,-0.021,-0.021,-0.0183,-0.0193,0,0,0,0,0,0,0,0,0,0,-0.0205,-0.0208,-0.022,-0.022,-0.022,-0.021,-0.021,-0.0194,-0.0193,-0.0184,0,-0.0183,0,-0.0184,-0.0181,-0.0181,0,0,0,-0.0217,-0.0209,-0.0207,-0.022,-0.022,-0.021,-0.0213,-0.0193,-0.0192,-0.0183,-0.0182,-0.0181,-0.0184,-0.018,-0.018,-0.0134,-0.0134,0,0,-0.0217,-0.0217,-0.0208,-0.0206,-0.0216,-0.0214,-0.0213,-0.0192,-0.019,-0.0182,-0.0181,-0.0183,-0.018,-0.018,-0.0134,-0.0134,0,0,0,-0.0221,-0.0217,-0.0216,-0.0207,-0.0208,-0.0214,-0.0213,-0.019,-0.019,-0.0181,-0.0183,-0.018,-0.018,-0.0135,-0.0134,-0.0101,0,0,0,-0.0221,-0.022,-0.0217,-0.0216,-0.0208,-0.0201,-0.0211,-0.0192,-0.019,-0.0183,-0.018,-0.018,-0.0135,-0.0135,-0.0103,-0.008,0,0,0,-0.0221,-0.022,-0.0219,-0.0216,-0.0214,-0.0202,-0.02,-0.0191,-0.0191,-0.0181,-0.0179,-0.0135,-0.0135,-0.0104,-0.0083,-0.0059,0,0,0,-0.0221,-0.0211,-0.0219,-0.0204,-0.0214,-0.0192,-0.0201,-0.0185,-0.0175,-0.018,-0.0135,-0.0134,-0.0105,-0.0085,-0.006,-0.0047,-0.0038,0,0,-0.0206,-0.0209,-0.0199,-0.0206,-0.0182,-0.0194,-0.0157,-0.0151,-0.0161,-0.0141,-0.014,-0.0102,-0.0083,-0.0059,-0.0006,0.0002,0,0,0,-0.0193,-0.0185,-0.0179,-0.0168,-0.016,-0.0137,-0.0136,-0.0129,-0.0113,-0.0152,-0.0097,-0.0086,-0.0072,-0.0067,-0.0061,-0.0134,-0.0131,-0.0131,-0.0131,-0.017,-0.0164,-0.0142,-0.013,-0.0115,-0.0094,-0.0073,-0.0063,-0.0082,-0.007,-0.0055,-0.0008,-0.0003,0.0002,-0.0073,-0.0055,-0.0055,-0.0055,-0.0055,-0.014,-0.0122,-0.0111,-0.0088,-0.0066,-0.0036,-0.0008,-0.001,0.0017,-0.0012,-0.0001,-0.0028,0.0011,-0.0071,-0.0053,-0.0053,-0.0054,-0.0054,-0.0054,-0.012,-0.0108,-0.0097,-0.0061,-0.0019,0.0005,0.006,0.0064,0.0051,0.0067,0.0061,0.0061,-0.0015,0.0065,0.0066,0.0066,0.0066,0.0066,0.0066,-0.0102,-0.0088,-0.0062,-0.0028,0.0004,0.0054,0.0098,0.0119,0.0124,0.0108,0.0108,-0.0004,0.0029,0.002,0.007,0.0069,0.0069,0.0068,0.0068,-0.007,-0.0068,-0.0027,0.0002,0.007,0.0117,0.0159,0.0193,0.0204,0.0207,0.0068,0.0129,0.0121,0.0116,0.0109,0.0179,0.0179,0.0179,0.0179,-0.0048,-0.0045,0.0004,0.0049,0.0112,0.0149,0.0188,0.0197,0.0148,0.0099,0.0072,0.0031,0.003,0.0013,0.001,-0.0001,0.004,0.0039,0.0039,-0.0022,-0.0012,0.0022,0.0054,0.0124,0.0173,0.0166,0.008,0.0021,0.0024,-0.0032,-0.0026,-0.0098,-0.0094,-0.0131,-0.013,-0.015,0,0]}],[{"header":{"parameterUnit":"m.s-1","parameterCategory":2,"la1":30.2992,"la2":30.254,"lo1":-89.0895,"lo2":-89.0443,"dy":0.0025,"dx":0.0025,"nx":19,"ny":19,"refTime":"2026-04-19T21:00:00:Z","depth":"2","parameterNumber":2,"parameterNumberName":"U-component_of_CURRENTS"},"data":[0,0,0,0.1159,0.1158,0.1134,0.1134,0.1139,0.1139,0,0,0,0,0,0,0,0,0,0,0,0.1167,0.1167,0.1159,0.1158,0.1134,0.1134,0.1139,0.1139,0,0,0,0,0,0,0,0,0,0,0,0.1167,0.1167,0.1167,0.1158,0.1134,0.1134,0.1139,0.1147,0,0,0,0,0,0,0,0,0,0,0.1165,0.1168,0.1167,0.1167,0.1158,0.1134,0.1134,0.1147,0.1146,0.1162,0,0.116,0,0.1153,0.1141,0.1141,0,0,0,0.1153,0.1168,0.1165,0.1167,0.1158,0.1134,0.1144,0.1146,0.1146,0.1161,0.116,0.116,0.1153,0.1141,0.1141,0.1177,0.1177,0,0,0.1154,0.116,0.1165,0.1165,0.1156,0.1144,0.1143,0.1145,0.1146,0.116,0.116,0.1154,0.1141,0.1141,0.1176,0.1177,0,0,0,0.1162,0.1161,0.1156,0.1165,0.1159,0.1144,0.1142,0.1146,0.1145,0.116,0.1154,0.1141,0.1141,0.1176,0.1177,0.1186,0,0,0,0.1162,0.1166,0.1157,0.1159,0.1159,0.1147,0.1142,0.1145,0.1145,0.1154,0.1141,0.1142,0.1176,0.1176,0.1186,0.1192,0,0,0,0.1167,0.1166,0.1165,0.116,0.1152,0.1147,0.1146,0.1144,0.1142,0.1141,0.1142,0.1176,0.1176,0.1185,0.1191,0.1201,0,0,0,0.1171,0.1171,0.1165,0.1164,0.1152,0.1151,0.1145,0.1146,0.1147,0.1141,0.1176,0.1177,0.1185,0.119,0.12,0.1156,0.1156,0,0,0.1173,0.1171,0.1171,0.1165,0.1164,0.1154,0.1161,0.116,0.1161,0.1176,0.1177,0.1186,0.1191,0.1201,0.1185,0.1183,0,0,0,0.1173,0.1172,0.1172,0.1169,0.1168,0.1169,0.1167,0.1173,0.1183,0.1164,0.1193,0.1196,0.1202,0.1174,0.1173,0.1179,0.1179,0.1179,0.1179,0.1179,0.1176,0.1173,0.1171,0.1175,0.1183,0.1191,0.12,0.1198,0.1209,0.121,0.1232,0.1202,0.1201,0.1215,0.1215,0.1215,0.1215,0.1215,0.1175,0.1166,0.117,0.1165,0.1174,0.1183,0.1211,0.1218,0.1239,0.1231,0.1236,0.1193,0.1201,0.1216,0.1216,0.1216,0.1216,0.1216,0.1215,0.1167,0.116,0.1158,0.1153,0.1163,0.1182,0.1208,0.1234,0.1248,0.1258,0.1224,0.1223,0.1234,0.1257,0.1258,0.1258,0.1258,0.1258,0.1258,0.115,0.1148,0.1143,0.1141,0.1144,0.1164,0.1208,0.1228,0.1238,0.1235,0.1234,0.1246,0.1245,0.1237,0.1259,0.1259,0.1259,0.1259,0.1258,0.113,0.1133,0.1121,0.1121,0.1122,0.1108,0.1169,0.1188,0.1218,0.1212,0.1221,0.1222,0.1215,0.1214,0.1206,0.1219,0.1219,0.1219,0.1219,0.1119,0.1119,0.1097,0.1087,0.1086,0.1081,0.1036,0.0999,0.1048,0.1032,0.104,0.1006,0.1013,0.0992,0.0997,0.0983,0.0938,0.0937,0.0936,0.111,0.1103,0.1079,0.106,0.1057,0.1024,0.0912,0.0727,0.0726,0.0921,0.0944,0.1209,0.118,0.1182,0.1167,0.1168,0.1154,0,0]},{"header":{"parameterUnit":"m.s-1","parameterCategory":2,"la1":30.2992,"la2":30.254,"lo1":-89.0895,"lo2":-89.0443,"dy":0.0025,"dx":0.0025,"nx":19,"ny":19,"refTime":"2026-04-19T21:00:00:Z","depth":"2","parameterNumber":3,"parameterNumberName":"V-component_of_CURRENTS"},"data":[0,0,0,-0.0135,-0.0135,-0.0128,-0.0127,-0.0099,-0.0099,0,0,0,0,0,0,0,0,0,0,0,-0.0135,-0.0135,-0.0135,-0.0135,-0.0128,-0.0127,-0.0099,-0.0099,0,0,0,0,0,0,0,0,0,0,0,-0.0135,-0.0135,-0.0135,-0.0135,-0.0128,-0.0127,-0.0099,-0.0109,0,0,0,0,0,0,0,0,0,0,-0.0118,-0.0122,-0.0135,-0.0135,-0.0135,-0.0128,-0.0127,-0.0109,-0.0108,-0.0098,0,-0.0098,0,-0.01,-0.0097,-0.0097,0,0,0,-0.0131,-0.0123,-0.0122,-0.0135,-0.0135,-0.0128,-0.013,-0.0109,-0.0107,-0.0097,-0.0098,-0.0097,-0.01,-0.0097,-0.0097,-0.0051,-0.0051,0,0,-0.0132,-0.0132,-0.0123,-0.0121,-0.0133,-0.013,-0.013,-0.0108,-0.0106,-0.0098,-0.0096,-0.0099,-0.0097,-0.0096,-0.0051,-0.0051,0,0,0,-0.0136,-0.0132,-0.0132,-0.0122,-0.0124,-0.013,-0.013,-0.0107,-0.0107,-0.0096,-0.0099,-0.0096,-0.0096,-0.0051,-0.0051,-0.002,0,0,0,-0.0136,-0.0135,-0.0132,-0.0132,-0.0124,-0.0118,-0.0129,-0.0108,-0.0106,-0.0099,-0.0096,-0.0096,-0.0052,-0.0051,-0.0022,0.0,0,0,0,-0.0135,-0.0135,-0.0134,-0.0132,-0.0131,-0.0119,-0.0117,-0.0108,-0.0108,-0.0097,-0.0096,-0.0052,-0.0051,-0.0023,-0.0002,0.0021,0,0,0,-0.0135,-0.0126,-0.0134,-0.0121,-0.0131,-0.011,-0.0117,-0.0103,-0.0092,-0.0096,-0.0052,-0.0051,-0.0024,-0.0004,0.0019,0.0042,0.0052,0,0,-0.0122,-0.0125,-0.0116,-0.0123,-0.0099,-0.0111,-0.0075,-0.0069,-0.0078,-0.0058,-0.0057,-0.0021,-0.0003,0.0021,0.008,0.0089,0,0,0,-0.011,-0.0103,-0.0097,-0.0086,-0.0078,-0.0055,-0.0055,-0.0048,-0.0033,-0.007,-0.0016,-0.0005,0.0008,0.0019,0.0025,-0.0048,-0.0048,-0.0048,-0.0048,-0.009,-0.0084,-0.0062,-0.0049,-0.0034,-0.0014,0.0006,0.0016,-0.0002,0.0008,0.0023,0.0067,0.0079,0.0084,0.0022,0.0022,0.0022,0.0022,0.0022,-0.0062,-0.0045,-0.0033,-0.001,0.0012,0.0041,0.007,0.0066,0.0092,0.0064,0.0075,0.0055,0.0094,0.0025,0.0024,0.0024,0.0024,0.0024,0.0023,-0.0044,-0.0033,-0.0022,0.0014,0.0055,0.0079,0.0133,0.0137,0.0124,0.0139,0.014,0.014,0.0088,0.0137,0.0137,0.0137,0.0137,0.0138,0.0138,-0.003,-0.0016,0.0009,0.0043,0.0074,0.0124,0.0168,0.0189,0.0198,0.0185,0.0185,0.0106,0.0102,0.0095,0.0141,0.014,0.014,0.014,0.0139,0.0,0.0002,0.004,0.0069,0.0137,0.0203,0.023,0.0268,0.0277,0.0282,0.0213,0.021,0.0204,0.0198,0.0193,0.0262,0.0262,0.0262,0.0262,0.002,0.0022,0.007,0.0114,0.0178,0.024,0.0325,0.039,0.0377,0.0372,0.0367,0.0348,0.0341,0.0341,0.0331,0.0328,0.0433,0.0433,0.0433,0.0044,0.0054,0.0085,0.0118,0.0189,0.0282,0.0375,0.0445,0.0437,0.0442,0.0417,0.0269,0.0227,0.022,0.0206,0.0197,0.0185,0,0]}],[{"header":{"parameterUnit":"m.s-1","parameterCategory":2,"la1":30.2992,"la2":30.254,"lo1":-89.0895,"lo2":-89.0443,"dy":0.0025,"dx":0.0025,"nx":19,"ny":19,"refTime":"2026-04-19T21:00:00:Z","depth":"4","parameterNumber":2,"parameterNumberName":"U-component_of_CURRENTS"},"data":[0,0,0,0.0657,0.0658,0.0723,0.0723,0.078,0.078,0,0,0,0,0,0,0,0,0,0,0,0.064,0.064,0.0657,0.0658,0.0723,0.0723,0.078,0.078,0,0,0,0,0,0,0,0,0,0,0,0.064,0.064,0.0641,0.0659,0.0722,0.0723,0.078,0.0738,0,0,0,0,0,0,0,0,0,0,0.0679,0.0675,0.064,0.0641,0.0659,0.0722,0.0723,0.0736,0.0741,0.0742,0,0.0757,0,0.0766,0.0783,0.0783,0,0,0,0.0661,0.0672,0.0678,0.0641,0.066,0.0722,0.0694,0.0739,0.0744,0.0748,0.0758,0.076,0.0767,0.0783,0.0784,0.0852,0.0852,0,0,0.0658,0.0661,0.0675,0.0682,0.0682,0.0692,0.0696,0.0742,0.0755,0.0758,0.0762,0.0768,0.0784,0.0784,0.0852,0.0852,0,0,0,0.0646,0.0658,0.0665,0.0679,0.0691,0.0694,0.0699,0.0753,0.0753,0.0762,0.0769,0.0784,0.0784,0.0851,0.0852,0.0878,0,0,0,0.0644,0.065,0.0663,0.0667,0.069,0.0729,0.0709,0.075,0.0755,0.0768,0.0784,0.0785,0.0851,0.0852,0.0876,0.0881,0,0,0,0.0636,0.065,0.0657,0.0666,0.0691,0.0728,0.0731,0.0752,0.0759,0.0783,0.0785,0.085,0.0851,0.0874,0.0878,0.0893,0,0,0,0.0636,0.0651,0.0657,0.0679,0.0691,0.0722,0.0731,0.0774,0.0799,0.0784,0.0851,0.0852,0.0874,0.0877,0.0891,0.0742,0,0,0,0.065,0.0653,0.0663,0.0669,0.0695,0.0713,0.0756,0.0799,0.0812,0.0833,0.0835,0.0876,0.0878,0.0892,0.0802,0,0,0,0,0.0663,0.0673,0.0681,0.0702,0.0721,0.0758,0.0794,0.0816,0.0866,0.0831,0.089,0.089,0.0898,0.0808,0.0857,0.0857,0.0856,0.0856,0.0856,0.0684,0.0688,0.0708,0.0723,0.0749,0.0798,0.0833,0.0872,0.088,0.0916,0.0921,0.0963,0.087,0.0936,0.0936,0.0936,0.0936,0.0936,0.0936,0.0696,0.0702,0.0725,0.0749,0.0784,0.0828,0.0882,0.091,0.0958,0.0957,0.0964,0.0854,0.0939,0.0939,0.0938,0.0938,0.0938,0.0938,0.0937,0.0698,0.07,0.0725,0.0762,0.0812,0.086,0.0899,0.0951,0.0983,0.1001,0.0905,0.098,0.0966,0.1011,0.1011,0.1011,0.1011,0.1011,0.1011,0.0685,0.0705,0.0733,0.0775,0.0805,0.0853,0.0919,0.0933,0.0975,0.0917,0.1013,0.0987,0.0985,0.097,0.1013,0.1013,0.1012,0.1012,0.1012,0.0674,0.0696,0.0721,0.0751,0.0793,0.0805,0.088,0.0858,0.0865,0.0836,0.0867,0.0874,0.0848,0.0849,0.0828,0.083,0.0828,0.0826,0,0.0669,0.0679,0.0706,0.0723,0.0726,0.0767,0.072,0.0737,0.0767,0.0743,0.0883,0.0921,0.0924,0.0897,0.0895,0.0871,0,0,0,0.0666,0.0673,0.0677,0.0691,0.0683,0.0659,0.0698,0.0667,0.0767,0.0708,0.0782,0.0794,0.0916,0.1018,0.0994,0.0991,0.0966,0,0]},{"header":{"parameterUnit":"m.s-1","parameterCategory":2,"la1":30.2992,"la2":30.254,"lo1":-89.0895,"lo2":-89.0443,"dy":0.0025,"dx":0.0025,"nx":19,"ny":19,"refTime":"2026-04-19T21:00:00:Z","depth":"4","parameterNumber":3,"parameterNumberName":"V-component_of_CURRENTS"},"data":[0,0,0,0.0312,0.0313,0.0324,0.0324,0.0355,0.0355,0,0,0,0,0,0,0,0,0,0,0,0.0312,0.0312,0.0312,0.0313,0.0324,0.0324,0.0355,0.0355,0,0,0,0,0,0,0,0,0,0,0,0.0312,0.0312,0.0312,0.0313,0.0324,0.0324,0.0355,0.0342,0,0,0,0,0,0,0,0,0,0,0.033,0.0323,0.0312,0.0312,0.0313,0.0324,0.0324,0.0342,0.0343,0.0354,0,0.0358,0,0.0356,0.0357,0.0358,0,0,0,0.0314,0.0322,0.0328,0.0312,0.0313,0.0324,0.0319,0.0342,0.0344,0.0356,0.0358,0.0359,0.0356,0.0358,0.0358,0.0371,0.0371,0,0,0.0313,0.0312,0.0326,0.0329,0.0319,0.0319,0.0319,0.0343,0.0346,0.0358,0.036,0.0357,0.0358,0.0358,0.0371,0.0371,0,0,0,0.0311,0.0312,0.0316,0.0328,0.0328,0.0319,0.032,0.0344,0.0347,0.036,0.0357,0.0358,0.0359,0.0371,0.0371,0.0374,0,0,0,0.031,0.031,0.0316,0.0315,0.0327,0.0333,0.0321,0.0345,0.0348,0.0357,0.0358,0.0359,0.0371,0.0371,0.0374,0.0385,0,0,0,0.0311,0.031,0.0313,0.0315,0.0319,0.0332,0.0336,0.0346,0.0346,0.0358,0.0359,0.0371,0.0371,0.0374,0.0385,0.0395,0,0,0,0.0307,0.0312,0.0313,0.032,0.0319,0.0332,0.0336,0.0342,0.0351,0.0358,0.0371,0.0371,0.0374,0.0385,0.0395,0.0399,0,0,0,0.0311,0.0313,0.0317,0.0318,0.0331,0.033,0.0344,0.0353,0.035,0.0365,0.0365,0.0374,0.0385,0.0395,0.0382,0,0,0,0,0.0317,0.0321,0.0326,0.0333,0.0342,0.0351,0.0356,0.0355,0.0355,0.0354,0.0367,0.0374,0.0381,0.0382,0.0369,0.0369,0.0369,0.0369,0.0369,0.032,0.0326,0.0337,0.0347,0.0356,0.0364,0.0368,0.0366,0.0364,0.0355,0.0371,0.0375,0.0374,0.0359,0.0359,0.0359,0.0359,0.0359,0.0359,0.0327,0.0335,0.0345,0.0356,0.0368,0.038,0.0384,0.0377,0.0379,0.0368,0.0374,0.0377,0.036,0.0359,0.0359,0.0359,0.0359,0.0359,0.0359,0.0331,0.0336,0.0343,0.0361,0.0381,0.0392,0.0413,0.0405,0.0388,0.0389,0.0393,0.0382,0.0389,0.0391,0.0391,0.0391,0.0391,0.0391,0.0391,0.0331,0.0339,0.0352,0.0369,0.0389,0.0415,0.0431,0.0436,0.0421,0.0405,0.0394,0.0386,0.0385,0.0391,0.0393,0.0392,0.0392,0.0392,0.0392,0.0336,0.034,0.036,0.0378,0.0421,0.0443,0.0461,0.0461,0.0462,0.045,0.0413,0.0412,0.0416,0.0414,0.0421,0.0432,0.0432,0.0433,0,0.0341,0.0342,0.0371,0.0402,0.044,0.0463,0.0478,0.0483,0.0456,0.0443,0.0458,0.0416,0.0414,0.0418,0.0417,0.0425,0,0,0,0.0346,0.0354,0.0374,0.0403,0.0447,0.047,0.0483,0.0475,0.0457,0.0463,0.0435,0.0434,0.0434,0.0397,0.04,0.0398,0.0408,0,0]}]]